Tracking 19564 objects as of 19-Mar-2019
HD Live streaming from Space Station
objects crossing your sky now

FLOCK 3R 13

Track FLOCK 3R 13 now!
10-day predictions
FLOCK 3R 13 is classified as:


NORAD ID: 43750
Int'l Code: 2018-096AH
Perigee: 476.9 km
Apogee: 505.1 km
Inclination: 97.5 °
Period: 94.3 minutes
Semi major axis: 6861 km
RCS: Unknown
Launch date: November 29, 2018
Source: United States (US)
Launch site: SRIHARIKOTA (SRI)
aabbcc
Your satellite tracking list
Your tracking list is empty




NASA's NSSDC Master Catalog

Two Line Element Set (TLE):
1 43750U 18096AH  19077.80300451  .00002851  00000-0  10881-3 0  9995
2 43750  97.4686 148.0027 0020585 306.2607 149.6526 15.27315557 16738
Source of the keplerian elements: AFSPC